EA5AFP-10 Weather Reports


Display with metric or nautical units.
time (UTC)temp
F
wind
direction
speed
MPH
gust
MPH
rain 1hr
in
rain 24hr
in
rain mn
in
humidity
%
barometer
mb
20260503192349 62 90 3.0 4.0 0.00 0.00 0.00 9 1008.7
20260503191930 62 112 3.0 4.0 0.00 0.00 0.00 9 1008.7
20260503191509 62 112 3.0 4.0 0.00 0.00 0.00 9 1008.6
20260503191043 62 112 3.0 4.0 0.00 0.00 0.00 9 1008.6
20260503190702 63 90 2.0 3.0 0.00 0.00 0.00 9 1008.8
20260503190625 63 90 2.0 3.0 0.00 0.00 0.00 9 1008.8
20260503190200 63 112 2.0 3.0 0.00 0.00 0.00 9 1008.8
20260503185705 63 112 3.0 4.0 0.00 0.00 0.00 9 1008.8
20260503185332 63 112 4.0 6.0 0.00 0.00 0.00 9 1008.8
20260503184932 63 112 3.0 3.0 0.00 0.00 0.00 9 1009.0
20260503184448 63 90 0.0 1.0 0.00 0.00 0.00 9 1009.0
20260503184044 63 90 1.0 2.0 0.00 0.00 0.00 9 1008.9
20260503183615 63 112 2.0 3.0 0.00 0.00 0.00 9 1008.7
20260503183129 63 90 3.0 4.0 0.00 0.00 0.00 9 1008.7
20260503182705 64 112 1.0 2.0 0.00 0.00 0.00 9 1008.7
20260503182323 64 90 2.0 3.0 0.00 0.00 0.00 9 1008.7
20260503181923 63 112 2.0 4.0 0.00 0.00 0.00 9 1008.7
20260503181439 63 112 3.0 3.0 0.00 0.00 0.00 9 1008.9
20260503181036 64 112 3.0 6.0 0.00 0.00 0.00 9 1008.7
20260503180549 64 112 3.0 3.0 0.00 0.00 0.00 8 1008.7
20260503180121 64 90 3.0 6.0 0.00 0.00 0.00 8 1008.7
20260503175656 64 112 5.0 8.0 0.00 0.00 0.00 8 1008.6
20260503175424 64 90 4.0 6.0 0.00 0.00 0.00 8 1008.6
20260503175002 64 112 3.0 6.0 0.00 0.00 0.00 8 1008.8
20260503174512 64 112 4.0 6.0 0.00 0.00 0.00 8 1008.4
20260503174042 64 112 6.0 8.0 0.00 0.00 0.00 8 1008.4
20260503173606 64 112 6.0 6.0 0.00 0.00 0.00 8 1008.5
20260503173139 64 112 5.0 8.0 0.00 0.00 0.00 8 1008.6
20260503172716 65 112 6.0 8.0 0.00 0.00 0.00 8 1008.6
20260503172713 65 112 6.0 8.0 0.00 0.00 0.00 8 1008.6
20260503172352 65 112 3.0 6.0 0.00 0.00 0.00 8 1008.6
20260503172253 65 112 3.0 6.0 0.00 0.00 0.00 8 1008.6
20260503171902 65 112 3.0 4.0 0.00 0.00 0.00 8 1008.9
20260503171455 65 135 4.0 6.0 0.00 0.00 0.00 8 1008.9
20260503171358 65 112 5.0 6.0 0.00 0.00 0.00 8 1008.8
20260503171016 65 90 4.0 6.0 0.00 0.00 0.00 8 1009.0
20260503170531 65 112 3.0 4.0 0.00 0.00 0.00 8 1008.7
20260503170116 65 112 6.0 8.0 0.00 0.00 0.00 8 1008.8
20260503160120 65 112 6.0 9.0 0.00 0.00 0.00 8 1008.6
20260503150615 65 112 8.0 10.0 0.00 0.00 0.00 8 1009.1
20260503150557 65 112 6.0 9.0 0.00 0.00 0.00 8 1009.1
20260503150130 65 135 9.0 13.0 0.00 0.00 0.00 8 1009.2
20260503140154 65 135 6.0 10.0 0.00 0.00 0.00 8 1009.9
20260503131041 66 90 7.0 9.0 0.00 0.00 0.00 8 1009.9
20260503130700 66 112 8.0 12.0 0.00 0.00 0.00 7 1009.9
20260503130624 66 112 8.0 12.0 0.00 0.00 0.00 7 1009.9
20260503130158 67 112 8.0 10.0 0.00 0.00 0.00 7 1010.0
20260503110653 68 112 1.0 4.0 0.00 0.00 0.00 7 1010.6
20260503110218 67 67 3.0 4.0 0.00 0.00 0.00 7 1010.7
20260503110121 67 67 3.0 4.0 0.00 0.00 0.00 7 1010.7
20260503100132 66 112 5.0 6.0 0.00 0.00 0.00 8 1011.5
20260503090114 65 90 3.0 6.0 0.00 0.00 0.00 8 1011.6
20260503081527 64 112 2.0 3.0 0.00 0.00 0.00 8 1011.6
20260503081359 64 112 3.0 4.0 0.00 0.00 0.00 8 1011.7
20260503081107 64 112 4.0 6.0 0.00 0.00 0.00 8 1011.6
20260503080607 64 90 3.0 4.0 0.00 0.00 0.00 9 1011.7
20260503080532 64 90 3.0 4.0 0.00 0.00 0.00 9 1011.7
20260503080118 64 112 3.0 4.0 0.00 0.00 0.00 9 1011.6
20260503072709 63 202 0.0 1.0 0.00 0.00 0.00 9 1011.6
20260503072707 63 202 0.0 1.0 0.00 0.00 0.00 9 1011.6
20260503072334 63 202 0.0 1.0 0.00 0.00 0.00 9 1011.6
20260503071903 63 112 1.0 2.0 0.00 0.00 0.00 9 1011.5
20260503071536 63 112 0.0 1.0 0.00 0.00 0.00 9 1011.3
20260503071453 63 90 0.0 2.0 0.00 0.00 0.00 9 1011.4
20260503071019 63 90 2.0 3.0 0.00 0.00 0.00 9 1011.3
20260503070536 63 0 0.0 1.0 0.00 0.00 0.00 9 1011.2
20260503070118 63 90 0.0 2.0 0.00 0.00 0.00 9 1011.1
20260503060159 62 0 0.0 0.0 0.00 0.00 0.00 9 1011.1
20260503054950 62 0 0.0 0.0 0.00 0.00 0.00 9 1011.1
20260503054603 62 0 0.0 0.0 0.00 0.00 0.00 9 1011.0
20260503054531 62 0 0.0 0.0 0.00 0.00 0.00 9 1011.0
20260503054047 62 0 0.0 0.0 0.00 0.00 0.00 9 1011.0
20260503053705 62 202 0.0 1.0 0.00 0.00 0.00 9 1011.2
20260503053629 62 202 0.0 1.0 0.00 0.00 0.00 9 1011.2
20260503053205 62 0 0.0 0.0 0.00 0.00 0.00 9 1011.0
20260503052713 62 0 0.0 1.0 0.00 0.00 0.00 9 1011.2
20260503052710 62 0 0.0 1.0 0.00 0.00 0.00 9 1011.2
20260503052524 62 0 0.0 1.0 0.00 0.00 0.00 9 1011.2
20260503052427 62 0 0.0 0.0 0.00 0.00 0.00 9 1010.9
20260503051955 62 0 0.0 0.0 0.00 0.00 0.00 9 1011.0
20260503051617 62 202 0.0 2.0 0.00 0.00 0.00 9 1011.0
20260503051505 62 225 0.0 1.0 0.00 0.00 0.00 9 1010.9
20260503051034 62 0 0.0 0.0 0.00 0.00 0.00 9 1010.8
20260503050652 62 202 0.0 1.0 0.00 0.00 0.00 9 1010.8
20260503050615 62 202 0.0 1.0 0.00 0.00 0.00 9 1010.8
20260503050150 62 0 0.0 0.0 0.00 0.00 0.00 9 1010.9
20260503045655 62 202 0.0 1.0 0.00 0.00 0.00 9 1010.8
20260503045327 62 0 0.0 1.0 0.00 0.00 0.00 9 1010.8
20260503044859 62 292 1.0 2.0 0.00 0.00 0.00 9 1010.7
20260503044448 62 292 1.0 2.0 0.00 0.00 0.00 9 1010.9
20260503044016 62 0 0.0 0.0 0.00 0.00 0.00 9 1010.9
20260503043614 62 0 0.0 0.0 0.00 0.00 0.00 9 1010.9
20260503043131 62 0 0.0 0.0 0.00 0.00 0.00 9 1010.9
20260503042707 62 0 0.0 0.0 0.00 0.00 0.00 9 1011.0
20260503042345 62 0 0.0 0.0 0.00 0.00 0.00 9 1011.0
20260503041900 61 0 0.0 0.0 0.00 0.00 0.00 9 1011.0
20260503041428 62 0 0.0 0.0 0.00 0.00 0.00 9 1011.0
20260503041409 62 0 0.0 0.0 0.00 0.00 0.00 9 1011.0
20260503041023 62 0 0.0 0.0 0.00 0.00 0.00 9 1010.9
20260503040609 62 0 0.0 0.0 0.00 0.00 0.00 9 1010.7
20260503040120 62 0 0.0 0.0 0.00 0.00 0.00 9 1010.9
20260503035708 62 202 0.0 1.0 0.00 0.00 0.00 9 1010.7
20260503035519 62 202 0.0 1.0 0.00 0.00 0.00 9 1010.7
20260503035318 61 0 0.0 0.0 0.00 0.00 0.00 9 1010.8
20260503035021 62 0 0.0 0.0 0.00 0.00 0.00 9 1010.7
20260503034517 62 0 0.0 1.0 0.00 0.00 0.00 9 1010.7
20260503034119 61 0 0.0 0.0 0.00 0.00 0.00 9 1010.8
20260503033630 62 0 0.0 0.0 0.00 0.00 0.00 9 1011.0
20260503033202 61 0 0.0 0.0 0.00 0.00 0.00 9 1010.9
20260503032715 61 270 1.0 3.0 0.00 0.00 0.00 9 1011.2
20260503032713 61 270 1.0 3.0 0.00 0.00 0.00 9 1011.2
20260503032431 61 270 1.0 2.0 0.00 0.00 0.00 9 1011.1
20260503032016 61 292 1.0 2.0 0.00 0.00 0.00 9 1011.1
20260503031519 61 270 0.0 1.0 0.00 0.00 0.00 9 1010.9
20260503031056 61 292 1.0 2.0 0.00 0.00 0.00 9 1011.0
20260503030615 62 0 0.0 0.0 0.00 0.00 0.00 9 1010.9
20260503030131 62 0 0.0 0.0 0.00 0.00 0.00 9 1010.9
20260503025706 61 0 0.0 0.0 0.00 0.00 0.00 9 1010.7
20260503025500 61 0 0.0 0.0 0.00 0.00 0.00 9 1010.7
20260503025343 61 0 0.0 0.0 0.00 0.00 0.00 9 1010.9
20260503024913 61 0 0.0 0.0 0.00 0.00 0.00 9 1010.9
20260503024545 61 0 0.0 0.0 0.00 0.00 0.00 9 1010.9
20260503024507 61 0 0.0 0.0 0.00 0.00 0.00 9 1010.9
20260503024048 62 225 0.0 1.0 0.00 0.00 0.00 9 1010.9
20260503023545 61 292 1.0 1.0 0.00 0.00 0.00 9 1011.1
20260503023127 61 292 1.0 2.0 0.00 0.00 0.00 9 1011.3
20260503022715 61 270 2.0 2.0 0.00 0.00 0.00 9 1011.5
20260503022713 61 270 2.0 2.0 0.00 0.00 0.00 9 1011.5
20260503022513 61 270 2.0 3.0 0.00 0.00 0.00 9 1011.4
20260503022226 62 0 0.0 0.0 0.00 0.00 0.00 9 1011.5
20260503022017 62 0 0.0 0.0 0.00 0.00 0.00 9 1011.6
20260503021532 62 0 0.0 0.0 0.00 0.00 0.00 9 1011.5
20260503021404 62 0 0.0 0.0 0.00 0.00 0.00 9 1011.6
20260503021046 62 202 0.0 2.0 0.00 0.00 0.00 9 1011.6
20260503020615 62 0 0.0 0.0 0.00 0.00 0.00 9 1011.7
20260503020122 62 0 0.0 0.0 0.00 0.00 0.00 9 1011.5
20260503015710 62 0 0.0 0.0 0.00 0.00 0.00 9 1011.6
20260503015708 62 0 0.0 0.0 0.00 0.00 0.00 9 1011.6
20260503015706 62 0 0.0 0.0 0.00 0.00 0.00 9 1011.6
20260503015443 62 0 0.0 0.0 0.00 0.00 0.00 9 1011.7
20260503015010 62 0 0.0 0.0 0.00 0.00 0.00 9 1011.7
20260503014554 62 0 0.0 0.0 0.00 0.00 0.00 9 1011.7
20260503014120 62 180 0.0 1.0 0.00 0.00 0.00 9 1011.8
20260503013632 62 180 0.0 2.0 0.00 0.00 0.00 9 1011.8
20260503013203 62 270 0.0 1.0 0.00 0.00 0.00 9 1011.8
20260503012713 63 0 0.0 0.0 0.00 0.00 0.00 9 1012.0
20260503012241 63 270 1.0 1.0 0.00 0.00 0.00 9 1012.1
20260503011836 63 0 0.0 0.0 0.00 0.00 0.00 9 1012.1
20260503011537 63 0 0.0 1.0 0.00 0.00 0.00 9 1012.1
20260503011427 63 0 0.0 1.0 0.00 0.00 0.00 9 1012.3
20260503011025 63 0 0.0 0.0 0.00 0.00 0.00 9 1012.1
20260503010611 63 0 0.0 1.0 0.00 0.00 0.00 9 1012.0
20260503010538 63 0 0.0 1.0 0.00 0.00 0.00 9 1012.0
20260503010121 63 180 0.0 1.0 0.00 0.00 0.00 9 1012.2
20260503005712 63 0 0.0 0.0 0.00 0.00 0.00 9 1012.3
20260503005710 63 0 0.0 0.0 0.00 0.00 0.00 9 1012.3
20260503005423 63 0 0.0 0.0 0.00 0.00 0.00 9 1012.3
20260503005305 63 0 0.0 1.0 0.00 0.00 0.00 9 1012.5
20260503004955 63 0 0.0 0.0 0.00 0.00 0.00 9 1012.4
20260503004522 63 0 0.0 0.0 0.00 0.00 0.00 9 1012.5
20260503004409 63 0 0.0 0.0 0.00 0.00 0.00 9 1012.4
20260503004046 63 0 0.0 0.0 0.00 0.00 0.00 9 1012.5
20260503003553 63 0 0.0 0.0 0.00 0.00 0.00 9 1012.6
20260503003126 63 0 0.0 0.0 0.00 0.00 0.00 9 1012.6
20260503002713 63 0 0.0 0.0 0.00 0.00 0.00 9 1012.6
20260503002406 63 0 0.0 0.0 0.00 0.00 0.00 9 1012.7
20260503002308 63 0 0.0 0.0 0.00 0.00 0.00 9 1012.7
20260503001913 63 292 0.0 1.0 0.00 0.00 0.00 9 1012.8
20260503001445 63 292 1.0 2.0 0.00 0.00 0.00 9 1013.0
20260503001011 63 270 1.0 2.0 0.00 0.00 0.00 9 1013.0
20260503000609 63 0 0.0 0.0 0.00 0.00 0.00 9 1013.1
20260503000126 63 0 0.0 0.0 0.00 0.00 0.00 9 1012.9
20260502235701 63 0 0.0 0.0 0.00 0.00 0.00 9 1013.0
20260502235446 63 0 0.0 0.0 0.00 0.00 0.00 9 1013.0
20260502235304 63 0 0.0 0.0 0.00 0.00 0.00 9 1012.8
20260502235021 63 202 0.0 1.0 0.00 0.00 0.00 9 1013.1
20260502234536 63 0 0.0 0.0 0.00 0.00 0.00 9 1013.2
20260502234407 63 202 1.0 2.0 0.00 0.00 0.00 9 1013.2
20260502234101 63 0 0.0 1.0 0.00 0.00 0.00 9 1013.3
20260502233613 63 247 0.0 1.0 0.00 0.00 0.00 9 1013.4
20260502233541 63 0 0.0 1.0 0.00 0.00 0.00 9 1013.2
20260502233125 63 0 0.0 1.0 0.00 0.00 0.00 9 1013.2
20260502232714 63 270 0.0 1.0 0.00 0.00 0.00 9 1013.3
20260502232431 63 270 0.0 1.0 0.00 0.00 0.00 9 1013.2
20260502232016 63 270 1.0 2.0 0.00 0.00 0.00 9 1013.1
20260502231539 63 292 3.0 3.0 0.00 0.00 0.00 9 1013.1
20260502231100 63 270 2.0 2.0 0.00 0.00 0.00 9 1013.2
20260502230612 63 270 1.0 2.0 0.00 0.00 0.00 9 1013.1
20260502230124 63 270 1.0 1.0 0.00 0.00 0.00 9 1013.1
20260502225712 63 270 1.0 2.0 0.00 0.00 0.00 9 1013.3
20260502225710 63 270 1.0 2.0 0.00 0.00 0.00 9 1013.3
20260502225422 63 270 1.0 2.0 0.00 0.00 0.00 9 1013.3
20260502225321 63 247 2.0 2.0 0.00 0.00 0.00 9 1013.3
20260502224846 63 0 0.0 0.0 0.00 0.00 0.00 9 1013.2
20260502224435 63 0 0.0 0.0 0.00 0.00 0.00 9 1013.3
20260502224012 63 0 0.0 1.0 0.00 0.00 0.00 9 1013.2
20260502223528 63 225 0.0 1.0 0.00 0.00 0.00 9 1013.3
20260502223121 63 225 1.0 1.0 0.00 0.00 0.00 9 1013.4
20260502222711 63 225 1.0 2.0 0.00 0.00 0.00 9 1013.5
20260502222333 63 225 1.0 1.0 0.00 0.00 0.00 9 1013.6
20260502221934 63 0 0.0 1.0 0.00 0.00 0.00 9 1013.4
20260502221449 62 0 0.0 1.0 0.00 0.00 0.00 9 1013.3
20260502221047 62 225 1.0 2.0 0.00 0.00 0.00 9 1013.4
20260502220617 62 0 0.0 0.0 0.00 0.00 0.00 9 1013.4
20260502220559 62 0 0.0 0.0 0.00 0.00 0.00 9 1013.6
20260502220132 62 0 0.0 0.0 0.00 0.00 0.00 9 1013.4
20260502215709 62 0 0.0 0.0 0.00 0.00 0.00 9 1013.6
20260502215707 62 0 0.0 0.0 0.00 0.00 0.00 9 1013.6
20260502215457 62 0 0.0 0.0 0.00 0.00 0.00 9 1013.6
20260502215413 62 0 0.0 0.0 0.00 0.00 0.00 9 1013.4
20260502214953 62 0 0.0 0.0 0.00 0.00 0.00 9 1013.6
20260502214533 63 0 0.0 0.0 0.00 0.00 0.00 9 1013.6
20260502214049 63 0 0.0 0.0 0.00 0.00 0.00 9 1013.6
20260502213703 63 112 2.0 2.0 0.00 0.00 0.00 9 1013.5
20260502213633 63 112 2.0 2.0 0.00 0.00 0.00 9 1013.5
20260502213208 63 112 1.0 2.0 0.00 0.00 0.00 9 1013.6
20260502212714 62 90 1.0 2.0 0.00 0.00 0.00 9 1013.7
20260502212418 62 90 1.0 2.0 0.00 0.00 0.00 9 1013.7
20260502211921 62 0 0.0 0.0 0.00 0.00 0.00 9 1013.7
20260502211448 62 0 0.0 0.0 0.00 0.00 0.00 9 1013.8
20260502211035 62 90 0.0 1.0 0.00 0.00 0.00 9 1013.6
20260502210518 62 90 1.0 2.0 0.00 0.00 0.00 9 1013.6
20260502210114 62 90 1.0 2.0 0.00 0.00 0.00 9 1013.4
20260502205710 62 112 3.0 4.0 0.00 0.00 0.00 9 1013.3
20260502205505 62 90 3.0 4.0 0.00 0.00 0.00 9 1013.4
20260502205043 63 112 1.0 2.0 0.00 0.00 0.00 9 1013.3
20260502204549 63 112 2.0 3.0 0.00 0.00 0.00 9 1013.3
20260502204110 63 90 3.0 4.0 0.00 0.00 0.00 9 1013.3
20260502203638 63 90 2.0 3.0 0.00 0.00 0.00 9 1013.3
20260502203206 63 90 4.0 6.0 0.00 0.00 0.00 9 1013.2
20260502202719 63 67 2.0 3.0 0.00 0.00 0.00 9 1013.2
20260502202717 63 67 2.0 3.0 0.00 0.00 0.00 9 1013.2
20260502202503 63 90 5.0 6.0 0.00 0.00 0.00 9 1013.1
20260502202346 63 90 3.0 6.0 0.00 0.00 0.00 9 1013.1
20260502201930 63 90 4.0 6.0 0.00 0.00 0.00 9 1013.1
20260502201518 63 90 3.0 6.0 0.00 0.00 0.00 9 1013.2
20260502201033 63 90 3.0 3.0 0.00 0.00 0.00 9 1013.1
20260502200650 64 90 3.0 6.0 0.00 0.00 0.00 9 1013.2
20260502200617 64 90 3.0 6.0 0.00 0.00 0.00 9 1013.2
20260502200152 64 112 5.0 6.0 0.00 0.00 0.00 9 1012.8
20260502195657 64 112 3.0 4.0 0.00 0.00 0.00 9 1013.0
20260502195513 64 112 3.0 4.0 0.00 0.00 0.00 9 1013.0
20260502195449 64 90 3.0 4.0 0.00 0.00 0.00 9 1013.3
20260502195032 64 67 4.0 6.0 0.00 0.00 0.00 9 1013.0
20260502194547 64 112 6.0 8.0 0.00 0.00 0.00 9 1013.0
20260502194121 64 112 6.0 8.0 0.00 0.00 0.00 9 1012.9
20260502193657 64 112 4.0 6.0 0.00 0.00 0.00 9 1012.9
20260502193630 64 112 6.0 9.0 0.00 0.00 0.00 9 1012.6
20260502193203 64 112 6.0 8.0 0.00 0.00 0.00 9 1012.7
20260502192716 64 90 6.0 8.0 0.00 0.00 0.00 8 1012.7
20260502192714 64 90 6.0 8.0 0.00 0.00 0.00 8 1012.7
20260502192712 64 90 6.0 8.0 0.00 0.00 0.00 8 1012.7